Location: Madden
(51.3728°N, 114.3297°W)
Time: 01:08:42
(UTC+00:00)

Envisat - Pass Details

Date: 18 April 2024
Orbit: 762 x 764 km, 98.3° (Epoch: 24 May)

Event Time Altitude Azimuth Distance (km) Brightness Sun altitude
Rises 11:50:56 0° 10° (N) 3,243 6.8 -7.0°
Reaches altitude 10° 11:53:18 10° 5° (N) 2,312 6.0 -6.7°
Maximum altitude 11:58:10 47° 293° (WNW) 1,008 3.4 -6.0°
Drops below altitude 10° 12:03:00 10° 221° (SW) 2,295 4.9 -5.3°
Enters shadow 12:04:52 - 216° (SW) 3,025 5.5 -5.1°
